DW8590 Weather Reports


Display with metric or nautical units.
time (UTC)temp
F
wind
direction
speed
MPH
gust
MPH
rain 1hr
in
rain 24hr
in
rain mn
in
humidity
%
barometer
mb
20260506174530 64 258 2.0 5.0 0.00 0.00 0.00 54 1020.0
20260506173026 62 244 1.0 5.0 0.00 0.00 0.00 57 1019.9
20260506171528 61 266 0.0 4.0 0.00 0.00 0.00 61 1019.9
20260506170017 60 250 1.0 5.0 0.00 0.00 0.00 61 1019.9
20260506164513 59 200 2.0 5.0 0.00 0.00 0.00 60 1019.7
20260506163017 58 256 1.0 4.0 0.00 0.00 0.00 64 1019.6
20260506161508 58 233 1.0 4.0 0.00 0.00 0.00 65 1019.7
20260506160011 58 233 1.0 3.0 0.00 0.00 0.00 65 1019.7
20260506154607 56 246 1.0 3.0 0.00 0.00 0.00 65 1019.7
20260506153056 55 153 0.0 3.0 0.00 0.00 0.00 68 1019.6
20260506151552 55 205 0.0 4.0 0.00 0.00 0.00 64 1019.6
20260506150047 55 207 0.0 2.0 0.00 0.00 0.00 67 1019.5
20260506144544 53 262 0.0 1.0 0.00 0.00 0.00 67 1019.5
20260506143038 53 139 0.0 1.0 0.00 0.00 0.00 71 1019.3
20260506141533 51 117 0.0 0.0 0.00 0.00 0.00 76 1019.1
20260506140037 47 115 0.0 1.0 0.00 0.00 0.00 82 1018.9
20260506134526 44 79 0.0 0.0 0.00 0.00 0.00 86 1018.7
20260506133023 43 79 0.0 1.0 0.00 0.00 0.00 86 1018.5
20260506131523 43 81 1.0 2.0 0.00 0.00 0.00 86 1018.4
20260506130018 43 84 0.0 1.0 0.00 0.00 0.00 86 1018.2
20260506124514 44 72 0.0 1.0 0.00 0.00 0.00 85 1017.8
20260506123010 44 74 0.0 2.0 0.00 0.00 0.00 85 1017.6
20260506121507 44 98 0.0 0.0 0.00 0.00 0.00 85 1017.4
20260506120005 45 137 0.0 1.0 0.00 0.01 0.00 84 1017.3
20260506114501 45 141 1.0 2.0 0.00 0.01 0.00 85 1017.1
20260506113059 44 78 0.0 0.0 0.00 0.01 0.00 86 1016.9
20260506111556 44 78 0.0 1.0 0.00 0.01 0.00 85 1016.7
20260506110052 45 35 0.0 0.0 0.00 0.01 0.00 84 1016.6
20260506104548 45 28 0.0 2.0 0.00 0.02 0.00 83 1016.5
20260506103045 45 79 0.0 2.0 0.00 0.02 0.00 84 1016.4
20260506101541 45 34 0.0 2.0 0.00 0.02 0.00 84 1016.2
20260506100041 45 39 0.0 2.0 0.00 0.02 0.00 85 1016.1
20260506094539 45 82 0.0 2.0 0.00 0.13 0.00 84 1015.9
20260506093052 45 115 0.0 2.0 0.00 0.13 0.00 83 1015.9
20260506091527 46 105 0.0 1.0 0.00 0.13 0.00 83 1015.8
20260506090024 47 355 0.0 0.0 0.00 0.13 0.00 81 1015.6
20260506084518 48 71 0.0 1.0 0.00 0.16 0.00 78 1015.6
20260506083015 49 75 0.0 2.0 0.00 0.16 0.00 75 1015.6
20260506081513 48 8 0.0 1.0 0.00 0.16 0.00 78 1015.6
20260506073007 49 95 0.0 2.0 0.00 0.19 0.00 78 1015.2
20260506071600 49 114 0.0 2.0 0.00 0.19 0.00 79 1015.1
20260506061559 53 146 1.0 5.0 0.00 0.25 0.19 68 1014.2
20260506044529 54 87 0.0 3.0 0.00 0.30 0.19 69 1013.1
20260506043028 54 149 0.0 2.0 0.00 0.30 0.19 70 1013.1
20260506041525 55 131 0.0 5.0 0.00 0.30 0.19 68 1012.9
20260506040024 55 134 0.0 7.0 0.00 0.30 0.19 68 1012.8
20260506034523 55 137 1.0 6.0 0.00 0.31 0.19 67 1012.7
20260506033119 56 129 0.0 3.0 0.00 0.31 0.19 65 1012.3
20260506031517 56 114 0.0 0.0 0.00 0.31 0.19 65 1011.9
20260506030015 57 115 0.0 0.0 0.00 0.31 0.19 62 1011.8
20260506024514 59 184 0.0 1.0 0.00 0.31 0.19 61 1011.6
20260506023012 61 190 0.0 1.0 0.00 0.31 0.19 57 1011.4
20260506021511 63 172 0.0 4.0 0.00 0.31 0.19 52 1011.2
20260506020013 66 270 1.0 4.0 0.00 0.34 0.19 46 1011.1
20260506014508 66 182 1.0 4.0 0.00 0.34 0.19 47 1011.0
20260506013006 66 183 1.0 5.0 0.00 0.34 0.19 46 1011.1
20260506011502 65 172 1.0 4.0 0.00 0.34 0.19 46 1011.1
20260506010104 65 235 2.0 7.0 0.00 0.34 0.19 47 1011.1
20260506004556 66 249 2.0 0.0 0.00 0.00 0.19 46 1011.1
20260506003054 66 149 1.0 5.0 0.00 0.37 0.19 47 1011.1
20260506001602 65 299 2.0 7.0 0.00 0.37 0.19 47 1011.2
20260506000109 66 169 2.0 5.0 0.00 0.37 0.19 49 1011.2
20260505234546 66 183 2.0 7.0 0.00 0.37 0.19 48 1011.2
20260505233048 65 263 1.0 6.0 0.00 0.37 0.19 50 1011.3
20260505231545 63 283 3.0 6.0 0.00 0.37 0.19 51 1011.6
20260505230043 62 205 1.0 5.0 0.00 0.37 0.19 57 1011.7
20260505224541 61 261 3.0 7.0 0.00 0.37 0.19 57 1011.9
20260505223036 61 326 1.0 8.0 0.00 0.37 0.19 59 1012.0
20260505221525 61 230 1.0 5.0 0.00 0.37 0.19 58 1011.9
20260505220021 60 126 1.0 5.0 0.00 0.37 0.19 59 1012.1
20260505214519 60 252 1.0 8.0 0.00 0.37 0.19 63 1012.2
20260505213016 59 121 1.0 6.0 0.00 0.37 0.19 66 1012.4
20260505211516 58 158 2.0 6.0 0.00 0.37 0.19 68 1012.6
20260505210008 57 262 1.0 8.0 0.00 0.37 0.19 68 1012.7
20260505204506 57 203 1.0 5.0 0.00 0.37 0.19 65 1012.8
20260505203059 55 132 0.0 4.0 0.00 0.37 0.19 72 1012.9
20260505201554 55 101 2.0 6.0 0.00 0.37 0.19 72 1012.9
20260505200052 54 271 2.0 6.0 0.00 0.37 0.19 72 1013.2
20260505194543 53 100 2.0 5.0 0.00 0.42 0.19 73 1013.3
20260505193040 53 146 2.0 5.0 0.00 0.42 0.19 73 1013.1
20260505191538 52 226 2.0 5.0 0.00 0.42 0.19 75 1013.2
20260505190036 53 198 1.0 5.0 0.00 0.42 0.19 76 1013.1
20260505184628 50 164 0.0 3.0 0.00 0.42 0.19 77 1013.0
20260505183025 49 161 0.0 3.0 0.00 0.42 0.19 78 1013.0
20260505181522 48 147 0.0 4.0 0.00 0.42 0.19 80 1013.0
20260505180015 47 148 0.0 3.0 0.00 0.42 0.19 81 1012.8